Regional Weather Roundup
Issued by NWS Upton, NY

Current Version | Previous Version | Graphics & Text | Print | Product List | Glossary Off
Versions: 1 2 3 4 5 6 7 8 9 10 11 12 13 14 15 16 17 18 19 20 21 22 23 24 25 26 27 28 29 30 31 32 33 34 35 36 37 38 39 40 41 42 43 44 45 46 47 48 49 50

000
ASUS41 KOKX 202305
RWROKX

REGIONAL WEATHER ROUNDUP
NATIONAL WEATHER SERVICE NEW YORK NY
700 PM EDT WED AUG 20 2014

NOTE: "FAIR" INDICATES FEW OR NO CLOUDS BELOW 12,000 FEET WITH NO
SIGNIFICANT WEATHER AND/OR OBSTRUCTIONS TO VISIBILITY.

NYZ071-072-176-178-NJZ106-104-210000-
NEW YORK CITY METRO AREA


CITY           SKY/WX    TMP DP  RH WIND       PRES   REMARKS
CENTRAL PARK   CLEAR     76  53  44 S6        30.02S
LAGUARDIA APRT PTCLDY    77  53  43 S12       29.99S
KENNEDY INTL   PTCLDY    75  58  55 SE10      30.01S
NEWARK/LIBERTY MOCLDY    77  55  46 SE7       29.99S
BRNX BOT. GARD   N/A     75  55  50 SE7       30.01S
TETERBORO      CLEAR     78  55  44 S8        29.98R
$$

NYZ177-179-078>081-210000-
LONG ISLAND NEW YORK

CITY           SKY/WX    TMP DP  RH WIND       PRES   REMARKS
FARMINGDALE    CLEAR     73  58  59 S9        30.01S
ISLIP          PTCLDY    73  59  61 S6        29.99F
SHIRLEY        CLEAR     73  58  59 S7        30.02S
WESTHAMPTON    CLEAR     72  58  61 S6        30.03S
MONTAUK POINT    N/A     71  59  65 CALM      30.04R
$$

NYZ052-065-067-210000-
HUDSON VALLEY

CITY           SKY/WX    TMP DP  RH WIND       PRES   REMARKS
WHITE PLAINS   CLEAR     74  63  68 SE8       30.00S
NEWBURGH       PTCLDY    79  64  61 S9        29.99S
MONTGOMERY     PTCLDY    79  62  56 S7        29.97R
POUGHKEEPSIE   CLEAR     80  64  58 S6        29.96R
ALBANY         MOCLDY    81  65  58 S6        29.95S
$$

NJZ001-105-106-008-010-013-015-019>022-104-210000-
NEW JERSEY

CITY           SKY/WX    TMP DP  RH WIND       PRES   REMARKS
NEWARK/LIBERTY MOCLDY    77  55  46 SE7       29.99S
TETERBORO      CLEAR     78  55  44 S8        29.98R
CALDWELL       CLEAR     78  55  44 S6        29.99S
MORRISTOWN     PTCLDY    77  55  47 SE6       29.99R
SOMERVILLE     PTCLDY    78  60  53 SE6       29.96S
LINDEN         FAIR      82  60  46 S8        30.01S
SUSSEX         PTCLDY    81  64  56 SE6       29.98R
ANDOVER          N/A     78  63  59 VRB3      29.99R
TRENTON        MOCLDY    77  58  51 SE10      29.98S
MILLVILLE      CLOUDY    77  62  59 S5        30.01R
ATLANTIC CITY  CLOUDY    74  63  68 SE8       30.01S
WRIGHTSTOWN    CLOUDY    76  60  58 SE8       29.98R
TOMS RIVER     CLOUDY    73  63  68 SE3       30.01S
BELMAR         MOCLDY    73  61  64 SE7       30.01S
$$

PAZ047>061-062-071-210000-
EASTERN PENNSYLVANIA

CITY           SKY/WX    TMP DP  RH WIND       PRES   REMARKS
PHILADELPHIA   CLOUDY    81  66  60 S13       29.99R
ALLENTOWN      CLOUDY    80  63  55 SW9       29.98R
SCRANTON       LGT RAIN  76  65  68 SW3       29.99R
$$

CTZ002-004>006-009-010-012-RIZ004-006-007-MAZ004-011-015-210000-
SOUTHERN NEW ENGLAND
 IN CT

CITY           SKY/WX    TMP DP  RH WIND       PRES   REMARKS
BRADLEY INTL   MOCLDY    81  61  50 SE7       29.98S
HARTFORD       CLEAR     78  60  53 S8        29.98S
DANBURY        CLEAR     75  62  64 S7        30.01S
WTRBRY/OXFORD  PTCLDY    73  61  64 S7        30.04R
BRIDGEPORT     CLEAR     76  64  66 SE8       30.00S
MERIDEN        CLEAR     78  54  43 S7        30.00R
NEW HAVEN      CLEAR     78  63  59 SE6       30.01R
CHESTER        FAIR      72  63  73 SE5       30.03R
GROTON         CLEAR     69  59  70 SE6       30.02R
WILLIMANTIC    PTCLDY    75  59  57 S8        30.02R

 IN RI

CITY           SKY/WX    TMP DP  RH WIND       PRES   REMARKS
PROVIDENCE     PTCLDY    72  60  66 S6        30.03R
BLOCK ISLAND   CLEAR     70  57  64 SE3       30.04R
WESTERLY       CLEAR     70  59  68 S5        30.03S

 IN MA

CITY           SKY/WX    TMP DP  RH WIND       PRES   REMARKS
BOSTON         MOCLDY    67  61  81 E8        30.04S
WORCESTER      PTCLDY    73  55  53 E6        30.05R
WESTFIELD      CLOUDY    77  65  66 CALM      29.99S
PROVINCETOWN   PTCLDY    68  57  68 MISG      30.04S
NANTUCKET      MOCLDY    67  59  75 NE9       30.02R
$$

ANZ330-335-338-340-345-350-353-355-210000-
COASTAL MARINE OBSERVATIONS


STATION/POSITION TIME  SKY/WX   TEMP    WIND        PRES    VSBY  WAVE
                                AIR SEA DIR/SP/G                  HT/PER
                 (UTC)          (F)     (DEG/KT/KT) (MB)    (MI)  (FT/S)
NY HARB ENTRANCE NOT AVBL
4S FIRE IS       NOT AVBL
23SW MTP         2300            70 70              1016.1          2/ 5
HUDSON CANYON    2300            72 73   50/ 10/ 10 1016.0          3/ 6
EXECUTION ROCKS  2300            78 74  170/ 10/ 12   N/A
WESTERN LI SOUND 2300            77     170/ 10/ 12   N/A           1
CENTRAL LI SOUND 2200            75 75  170/ 10/ 12   N/A           0
EASTERN LI SOUND 2200            74 70  130/  8/ 10   N/A
ROBBINS REEF     2300            73     160/ 16/ 17   N/A
$$


>>>>>>>>>>>>>>>>>>>>>>>>>>>> KEY <<<<<<<<<<<<<<<<<<<<<<<<<<<
>                                                          <
>     SKY/WX - SKY CONDITION/PRESENT WEATHER               <
>     TMP    - TEMPERATURE IN FAHRENHEIT                   <
>     DP     - DEWPOINT IN FAHRENHEIT                      <
>     RH     - RELATIVE HUMIDITY IN PERCENT                <
>     WIND   - DIRECTION AND SPEED IN MPH                  <
>     PRES   - MEAN SEA LEVEL PRESSURE IN INCHES OF HG     <
>     WCI    - WIND CHILL INDEX                            <
>     VSB    - VISIBILITY IN MILES                         <
>     HX     - HEAT INDEX                                  <
>     TC     - TEMPERATURE IN CELSIUS                      <
>     VRB    - VARIABLE WIND DIRECTION                     <
>                                                          <
>>>>>>>>>>>>>>>>>>>>>>>>>>>> KEY <<<<<<<<<<<<<<<<<<<<<<<<<<<





USA.gov is the U.S. government's official web portal to all federal, state and local government web resources and services.